Location: *
(41.1667°S, 165.3333°W)
Time: 15:58:14
(UTC+00:00)

Daily predictions for brighter satellites

Satellite Brightness Start Highest point End
(mag) Time Altitude Azimuth Time Altitude Azimuth Time Altitude Azimuth
ATLAS 2AS CENTAUR R/B 4.1 14:13:31 36° ESE 14:13:31 36° ESE 14:19:30 10° ENE
SL-16 R/B 4.4 14:12:30 10° SE 14:17:34 25° E 14:19:48 21° NE
Cosmos 2219 Rocket 4.2 14:28:11 24° ESE 14:28:11 24° ESE 14:31:10 10° SE
Cosmos 2322 Rocket 4.2 14:50:54 19° SSE 14:50:54 19° SSE 14:52:25 10° SSE
CZ-3 R/B 4.4 14:46:28 43° NW 14:49:39 45° NW 15:01:34 10° NE
CZ-3 Stage 3 3.8 15:01:06 44° N 15:02:17 46° NNE 15:22:49 10° ENE
Cosmos 2360 Rocket 3.7 15:14:05 27° SSE 15:14:05 27° SSE 15:16:36 10° SSE
Nadezhda 4 Rocket 4.3 15:13:16 58° NNE 15:13:16 58° NNE 15:18:10 10° N
USA 215 4.2 15:07:17 10° NNE 15:11:10 34° N 15:11:10 34° N
Cosmos 2034 Rocket 4.0 15:18:34 42° N 15:20:52 81° E 15:27:15 10° S
Centaur D AC-29 3.8 15:22:06 30° NNW 15:25:09 38° N 16:01:22 10° ENE
Centaur D AC-29 3.8 15:22:06 30° NNW 15:25:10 38° N 16:01:22 10° ENE
Centaur D AC-29 3.8 15:22:05 30° NNW 15:25:10 38° N 16:01:22 10° ENE
Cosmos 2333 Rocket 3.7 15:28:47 24° S 15:28:47 24° S 15:31:07 10° SSE
Meteor 1-21 Rocket 4.1 15:29:10 84° ESE 15:29:13 85° E 15:34:50 10° N
Lacrosse 5 rocket 3.3 15:36:02 20° SE 15:36:02 20° SE 15:37:20 10° SE
Cosmos 1331 Rocket 3.9 15:36:23 82° NE 15:36:29 83° ENE 15:41:44 10° SSE
Cosmos 2322 4.3 15:35:42 10° N 15:41:16 56° ENE 15:46:54 10° SSE
UNK 3.9 15:36:55 10° SSE 15:41:37 72° ENE 15:45:18 16° N
Thor Agena Rocket 4.3 15:38:07 10° N 15:41:30 39° NNW 15:41:30 39° NNW
Cosmos 371 Rocket 3.9 15:42:31 29° S 15:44:42 53° ESE 15:49:22 10° NE
CBERS-1 4.3 15:39:50 10° N 15:43:55 54° NNW 15:43:55 54° NNW
Cosmos 968 Rocket 3.6 15:43:58 38° S 15:45:57 71° ESE 15:51:03 10° NNE
Cosmos 2221 Rocket 3.6 15:46:58 86° E 15:46:58 86° E 15:51:32 10° N
Cosmos 2026 Rocket 3.9 15:44:55 10° S 15:51:08 88° E 15:57:23 10° N
In-Cosmos 22 Rocket 4.0 15:51:30 63° W 15:51:44 64° W 15:57:04 10° N
Cosmos 1908 Rocket 3.5 15:56:51 68° SSW 15:56:51 68° SSW 16:00:51 10° S
ACS3 Solar Sail 2.0 15:52:48 10° NNE 15:59:02 76° ESE 16:05:25 10° S
USA 81 4.1 16:00:09 52° WNW 16:00:09 52° WNW 16:04:49 10° NNW
SL-16 R/B 2.6 15:55:18 10° S 16:01:23 53° WSW 16:04:52 25° NW
SMAP 4.1 15:58:38 10° NE 16:03:06 46° ESE 16:07:37 10° S
USA 305 3.7 16:03:03 35° S 16:03:46 38° SSE 16:07:24 10° ENE
ATLAS 2AS CENTAUR R/B 2.9 16:01:00 36° WSW 16:03:55 57° WNW 16:11:09 10° NNE
SJ 16-02 2.5 16:08:05 28° NNW 16:08:05 28° NNW 16:10:25 10° N
Meteor 1-11 4.1 16:00:43 10° SSW 16:06:26 82° W 16:12:02 10° N
SL-4 R/B 1.9 16:09:12 67° WSW 16:09:42 82° NW 16:13:49 10° NE
Cosmos 2219 Rocket 2.5 16:09:57 40° WSW 16:10:07 41° WSW 16:15:27 10° S
IRS-1C 4.1 16:05:50 10° NNE 16:11:11 88° ESE 16:16:37 10° SSW
CENTAUR R/B 3.3 16:08:15 10° NNW 16:16:56 72° ENE 16:24:06 10° SE
Cosmos 304 Rocket 3.6 16:15:01 24° SSW 16:17:55 76° WNW 16:22:40 10° NNE
Cosmos 1850 Rocket 4.0 16:15:23 25° SSW 16:18:30 61° WNW 16:23:45 10° N
SL-16 R/B 4.3 16:20:37 10° SSW 16:20:37 10° SSW 16:20:49 10° SSW
COSMOS 2428 2.6 16:13:48 10° NNW 16:19:32 86° WSW 16:25:19 10° SSE
CORIOLIS 4.3 16:15:52 10° NNE 16:21:15 75° ESE 16:26:41 10° S
Cosmos 1634 Rocket 4.0 16:18:04 10° NNW 16:24:16 61° W 16:30:32 10° S
Cosmos 1092 Rocket 4.0 16:18:29 10° SSW 16:24:36 55° W 16:30:36 10° NNW
Cosmos 2278 Rocket 3.4 16:19:20 10° S 16:24:45 41° ESE 16:30:06 10° NE
IRAS Rocket 4.4 16:21:12 10° N 16:26:32 47° W 16:31:54 10° SSW
Cosmos 1975 Rocket 3.5 16:23:07 10° S 16:27:28 60° E 16:31:44 10° NNE
Atlas Centaur 2 4.0 16:24:52 10° NNW 16:28:35 18° N 16:31:49 10° NE
Cosmos 2279 Rocket 3.9 16:25:01 10° N 16:31:13 80° W 16:37:32 10° S
Cosmos 2322 Rocket 3.9 16:32:43 14° SSW 16:32:43 14° SSW 16:34:48 10° SSW
Cosmos 1452 Rocket 4.1 16:34:28 22° WNW 16:37:02 33° WSW 16:41:51 10° S
ARIANE 5 R/B 2.6 16:34:07 10° N 16:38:59 51° W 16:43:55 10° SSW
Cosmos 1980 4.2 16:37:06 10° N 16:42:41 64° ENE 16:48:19 10° SSE
CZ-2D R/B 3.4 16:39:57 10° NNW 16:43:08 38° W 16:44:46 23° SW
BREEZE-M DEB (TANK) 4.2 16:37:33 19° WSW 16:45:09 40° SSW 16:48:47 10° ESE
Cosmos 1025 Rocket 4.1 16:47:17 21° WSW 16:48:33 24° W 16:52:06 10° NW
Cosmos 1782 Rocket 4.0 16:46:19 10° NNW 16:50:29 40° WSW 16:54:44 10° S
SJ-12 4.4 16:49:54 10° NNW 16:53:29 34° W 16:57:06 10° SSW
Cosmos 332 Rocket 4.0 16:48:37 10° SSW 16:53:29 75° ESE 16:58:18 10° NNE
Cosmos 1666 4.3 16:51:24 10° SSE 16:53:33 23° ESE 16:55:41 10° NE
Cosmos 1606 2.2 16:52:41 10° N 16:55:48 82° E 16:58:59 10° S
Cosmos 2360 Rocket 4.0 16:55:52 12° SW 16:56:00 12° SW 16:58:10 10° SSW
Spot 4 Rocket 4.1 16:53:49 10° NNE 16:58:57 84° ESE 17:04:09 10° SSW
IGS 5A 3.6 16:55:20 10° N 16:59:15 48° W 17:03:13 10° SSW
BREEZE-M DEB (TANK) 3.1 16:58:40 21° SW 16:59:15 23° SSW 17:01:05 10° SE
BlueWalker 3 1.9 16:55:58 10° NW 16:59:43 85° NE 17:03:29 10° SE
SL-08 ROCKET BODY 4.3 16:54:12 10° S 17:00:06 76° W 17:06:00 10° N
NOSS 0 Rocket 3.9 16:59:49 10° NW 17:05:56 63° WSW 17:12:06 10° SSE
CZ-2D R/B 3.4 17:02:39 10° N 17:06:26 55° W 17:10:22 10° SSW
Timation 2 Rocket 4.5 16:59:56 10° SW 17:06:27 46° WNW 17:12:44 10° N
Lacrosse 5 rocket 2.9 17:10:04 13° SW 17:11:36 16° SSW 17:13:56 10° SSE
YAOGAN 1 3.7 17:11:15 10° NE 17:15:21 46° ESE 17:19:31 10° S
Orbus 7S? 3.8 17:11:32 10° SW 17:16:16 51° SE 17:19:04 10° ENE
Cosmos 1536 Rocket 4.5 17:12:46 10° S 17:17:12 54° E 17:21:35 10° NNE
Cosmos 2266 Rocket 4.0 17:12:04 10° SSW 17:18:25 72° W 17:24:35 10° N
SL-19 R/B 4.1 17:17:15 10° N 17:20:26 53° WNW 17:24:00 10° SSW
Cosmos 2237 Rocket 2.2 17:14:51 10° NNW 17:20:32 69° WSW 17:26:18 10° SSE
Cosmos 1943 Rocket 2.2 17:15:53 10° SSW 17:21:37 82° WNW 17:27:14 10° NNE
Meteor 1-31 Rocket 4.2 17:22:15 10° NE 17:25:37 37° ESE 17:29:01 10° S
Cosmos 2369 Rocket 4.5 17:24:05 10° S 17:28:04 19° SE 17:32:04 10° E
USA 307 4.4 17:27:39 10° SSW 17:30:02 19° SSE 17:32:45 10° ESE
USA 305 3.4 17:29:04 10° WSW 17:32:43 34° NW 17:35:59 10° NNE
ATLAS 5 CENTAUR R/B 3.9 17:28:34 10° SSW 17:33:15 23° SE 17:37:14 10° E
SPOT 1/Viking Rocket 4.0 17:32:04 10° NNE 17:37:13 70° ESE 17:42:27 10° S
